Regional Weather Roundup
Issued by NWS State College, PA

Home | Current Version | Previous Version | Graphics & Text | Print | Product List | Glossary On
Versions: 1 2 3 4 5 6 7 8 9 10 11 12 13 14 15 16 17 18 19 20 21 22 23 24 25 26 27 28 29 30 31 32 33 34 35 36 37 38 39 40 41 42 43 44 45 46 47 48 49 50
000
ASUS41 KCTP 012110
RWRCTP

REGIONAL WEATHER ROUNDUP
NATIONAL WEATHER SERVICE STATE COLLEGE PA
400 PM EST SUN FEB 01 2015

Note: "fair" indicates few or no clouds below 12,000 feet with no
significant weather and/or obstructions to visibility.

* = STATION THAT DOES NOT REPORT PRECIPITATION /E.G. RAIN...SNOW...ETC/
    THUNDER OR FOG.

PAZ002>004-007>009-013>016-020>023-029>032-012200-
WESTERN PENNSYLVANIA

CITY           SKY/WX    TMP DP  RH WIND       PRES   REMARKS
ERIE           LGT SNOW  24  21  88 NE13      29.95F VSB 3/4 WCI  12
MEADVILLE      SNOW      28  25  88 E9        29.88F VSB 1/4
FRANKLIN*      CLOUDY    27  23  86 E9        29.91F
NEW CASTLE     CLOUDY    30  29  96 E5        29.90F
BEAVER COUNTY  NOT AVBL
BUTLER*        CLOUDY    30  28  93 E9        29.90F
PITTSBURGH INT CLOUDY    32  31  96 E6        29.88F FOG
PITTSBURGH     CLOUDY    33  30  88 E5        29.87F FOG
INDIANA*       PTSUNNY   32  32 100 E5        29.96F
LATROBE        CLOUDY    32  32 100 NE7       29.91F
WASHINGTON CO* CLOUDY    34  32  93 CALM      29.89F
$$

PAZ004>006-010>012-017>019-024>028-033>037-041-042-045-046-049>053-012200-
CENTRAL PENNSYLVANIA

CITY           SKY/WX    TMP DP  RH WIND       PRES   REMARKS
BRADFORD       LGT SNOW  26  21  81 SE8       29.91F VSB 3/4
DUBOIS         SNOW      28  26  92 E8        29.92S VSB 1/4
CLEARFIELD     SNOW      28  27  96 E8        29.96F VSB 1/2
JOHNSTOWN      LGT SNOW  32  30  92 S8        29.90F VSB 3/4
ALTOONA        SNOW      31  29  92 E5        29.98F VSB 1/2
STATE COLLEGE  LGT SNOW  30  28  93 CALM      29.99F VSB 1
WILLIAMSPORT   LGT SNOW  29  24  82 E8        30.08F
SELINSGROVE    LGT SNOW  32  28  85 NE5       30.08F VSB 1
FT INDIANTOWN  CLOUDY    35  20  55 E5        30.07F
CAPITAL CITY   CLOUDY    37  23  56 SE3       30.08S
HARRISBURG     CLOUDY    36  24  62 SE8       30.07
YORK           LGT SNOW  36  23  59 S9G17     30.07S
$$

PAZ038>040-043-044-047-048-054-055-060>062-067>071-012200-
EASTERN PENNSYLVANIA

CITY           SKY/WX    TMP DP  RH WIND       PRES   REMARKS
SCRANTON       LGT SNOW  30  23  75 CALM      30.07F
MOUNT POCONO   CLOUDY    27  20  75 W3        30.02F
ALLENTOWN      CLOUDY    35  23  61 CALM      30.11F
QUAKERTOWN*    CLOUDY    34  25  69 CALM      30.11F
READING        CLOUDY    36  23  59 CALM      30.09F
LANCASTER      PTSUNNY   35  25  66 E8        30.08F
COATESVILLE    MOCLDY    37  25  60 CALM      30.09F
POTTSTOWN      CLOUDY    36  24  62 NE3       30.11F
BLUE BELL      CLOUDY    37  28  70 CALM      30.11F
DOYLESTOWN     CLOUDY    34  24  67 CALM      30.11F
WILLOW GROVE   NOT AVBL
NORTH PHILA    CLOUDY    39  24  55 NE5       30.14F
PHILADELPHIA   CLOUDY    39  25  57 E5        30.14F
$$


USA.gov is the U.S. government's official web portal to all federal, state and local government web resources and services.